Regional Weather Roundup
Issued by NWS Upton, NY

Current Version | Previous Version | Text Only | Print | Product List | Glossary On
Versions: 1 2 3 4 5 6 7 8 9 10 11 12 13 14 15 16 17 18 19 20 21 22 23 24 25 26 27 28 29 30 31 32 33 34 35 36 37 38 39 40 41 42 43 44 45 46 47 48 49 50
552
ASUS41 KOKX 270308
RWROKX

REGIONAL WEATHER ROUNDUP
NATIONAL WEATHER SERVICE NEW YORK NY
1100 PM EDT SUN MAR 26 2017

NOTE: "FAIR" INDICATES FEW OR NO CLOUDS BELOW 12,000 FEET WITH NO
SIGNIFICANT WEATHER AND/OR OBSTRUCTIONS TO VISIBILITY.

NYZ071-072-176-178-NJZ106-104-270400-
NEW YORK CITY METRO AREA

CITY           SKY/WX    TMP DP  RH WIND       PRES   REMARKS
Central Park   CLOUDY    39  38  96 E6        30.36F FOG     WCI  35
Wall St Helipt CLOUDY    41  39  93 NE12      30.34F
LaGuardia APRT DRIZZLE   40  37  89 NE10      30.34F FOG     WCI  33
Kennedy INTL   DRIZZLE   40  39  97 E14       30.35S FOG     WCI  32
Breezy Point     N/A     39 N/A N/A E12G17      N/A  WCI  32
Newark/Liberty DRIZZLE   41  39  93 E7        30.34S FOG
Teterboro      CLOUDY    40  38  93 E6        30.34S FOG
$$

NYZ177-179-078>081-270400-
LONG ISLAND NEW YORK

CITY           SKY/WX    TMP DP  RH WIND       PRES   REMARKS
Jones Beach      N/A     39 N/A N/A E16         N/A  WCI  30
Matinecock PT    N/A     37 N/A N/A E17         N/A  WCI  28
Farmingdale    CLOUDY    39  37  92 E9        30.33F FOG     WCI  33
MacArthur/ISP  DRIZZLE   38  38 100 E7        30.34F FOG     WCI  33
Shirley        LGT RAIN  38  38 100 VRB3      30.36F FOG
Westhampton    LGT RAIN  38  36  92 E10       30.36F FOG     WCI  31
East Hampton   DRIZZLE   37  35  95 E8        30.36F WCI  30
Montauk          N/A     38  34  85 E6        30.38F WCI  33
$$

NYZ052-065-067-270400-
HUDSON VALLEY

CITY           SKY/WX    TMP DP  RH WIND       PRES   REMARKS
White Plains   LGT RAIN  36  34  92 E8G18     30.33F VSB 1   WCI  30
Newburgh       CLOUDY    37  36  93 SE9       30.35S WCI  31
Montgomery     CLOUDY    37  34  89 E5        30.33F WCI  33
Poughkeepsie   CLOUDY    37  31  78 SE3       30.35S
Albany         CLOUDY    37  30  75 S9        30.31F WCI  30
$$

NJZ001-105-106-008-010-013-015-019>022-104-270400-
NEW JERSEY

CITY           SKY/WX    TMP DP  RH WIND       PRES   REMARKS
Newark/Liberty DRIZZLE   41  39  93 E7        30.34S FOG
Teterboro      CLOUDY    40  38  93 E6        30.34S FOG
Caldwell       CLOUDY    39  37  92 E5        30.35S FOG
Somerville     CLOUDY    40  38  93 E3        30.32S FOG
Linden         CLOUDY    40  38  91 SE8       30.35S FOG     WCI  35
Sussex         CLOUDY    37  35  92 N3        30.32F FOG
Andover          N/A     37  35  92 CALM      30.31F
Trenton        CLOUDY    40  39  97 E9        30.31F FOG     WCI  34
Millville      CLOUDY    43  43 100 E7        30.27S FOG
Atlantic City  CLOUDY    44  42  93 E10       30.27F FOG
Wrightstown    CLOUDY    40  39  96 NE7       30.27F FOG
Toms River     LGT RAIN  41  41 100 NE8       30.31F FOG
Belmar         LGT RAIN  40  39  97 E10       30.32F FOG     WCI  33
$$

PAZ047>061-062-071-270400-
EASTERN PENNSYLVANIA

CITY           SKY/WX    TMP DP  RH WIND       PRES   REMARKS
Philadelphia   CLOUDY    41  39  93 NE7       30.30F FOG
Allentown      CLOUDY    40  37  89 E8        30.30F FOG     WCI  34
Scranton       CLOUDY    39  35  86 CALM      30.24F
$$

CTZ002-004>006-009-010-012-RIZ004-006-007-MAZ004-011-015-270400-
SOUTHERN NEW ENGLAND
 IN CT

CITY           SKY/WX    TMP DP  RH WIND       PRES   REMARKS
Bradley INTL   CLOUDY    38  29  70 E3        30.38F
Hartford       CLOUDY    38  28  67 E6        30.39F WCI  33
Danbury        CLOUDY    35  34  96 E8        30.35F FOG     WCI  29
Wtrbury/Oxford CLOUDY    36  28  75 SE5       30.35F WCI  32
Bridgeport     CLOUDY    39  35  86 E13       30.37F FOG     WCI  31
Meriden        CLOUDY    39  29  67 E7        30.38F WCI  34
New Haven      CLOUDY    37  34  89 E10       30.38F FOG     WCI  30
Chester        NOT AVBL
Groton         CLOUDY    38  31  76 E17       30.38S WCI  28
Wilimantic     CLOUDY    39  29  67 E3        30.39F

 IN RI

CITY           SKY/WX    TMP DP  RH WIND       PRES   REMARKS
Providence     CLOUDY    38  28  67 E7        30.41S WCI  33
Block Island   CLOUDY    38  33  82 E10G21    30.38F WCI  31
Westerly       CLOUDY    39  31  72 E9        30.39F WCI  33
 IN MA

CITY           SKY/WX    TMP DP  RH WIND       PRES   REMARKS
Boston         CLOUDY    37  32  82 SE12      30.42F WCI  29
Worcester      CLOUDY    33  27  78 E6        30.37S WCI  28
Westfield      CLOUDY    37  29  72 SE3       30.37F
Provincetown   LGT RAIN  38  29  70 SE7       30.43F WCI  33
Nantucket      CLOUDY    37  30  75 E10       30.39F WCI  30
$$

ANZ330-335-338-340-345-350-353-355-270400-
COASTAL MARINE OBSERVATIONS


STATION/POSITION TIME  SKY/WX   TEMP    WIND        PRES    VSBY  WAVE
                                AIR SEA DIR/SP/G                  HT/PER
                 (UTC)          (F)     (DEG/KT/KT) (MB)    (MI)  (FT/S)
NY HARB ENTRANCE 0150            41 42   70/ 16/ 19 1027.1          5/ 7
20 S FIRE ISLAND 0250            41 40   80/ 14/ 17 1026.2          7/ 7
GREAT SOUTH BAY  NOT AVBL
23 SSW MONTAUK P 0150            39 43              1028.1          6/ 6
15 E BARNEGAT LI 0230               43                N/A           6/ 7
HUDSON CANYON    0150            47 44  100/ 16/ 19 1025.3          8/ 8
KINGS POINT      0242            38 39              1027.3
EXECUTION ROCKS  NOT AVBL
CENTRAL LI SOUND 0200            39     110/ 16/ 19   N/A           3/ 4
EASTERN LI SOUND NOT AVBL
ROBBINS REEF     0242            40      90/ 12/ 15 1027.5
$$


>>>>>>>>>>>>>>>>>>>>>>>>>>>> KEY <<<<<<<<<<<<<<<<<<<<<<<<<<<
>                                                          <
>     SKY/WX - Sky Condition/Present Weather               <
>     TMP    - Temperature in Fahrenheit                   <
>     DP     - Dew Point in Fahrenheit                     <
>     RH     - Relative Humidity in Percent                <
>     WIND   - Direction (from) and Speed in MPH           <
>     PRES   - Mean Sea Level Pressure (inches of Hg)      <
>     WCI    - Wind Chill Index                            <
>     VSB    - VISIBILITY IN MILES                         <
>     HX     - HEAT INDEX                                  <
>     TC     - TEMPERATURE IN CELSIUS                      <
>     VRB    - VARIABLE WIND DIRECTION                     <
>                                                          <
>>>>>>>>>>>>>>>>>>>>>>>>>>>> KEY <<<<<<<<<<<<<<<<<<<<<<<<<<<




USA.gov is the U.S. government's official web portal to all federal, state and local government web resources and services.